W9BO-8 Weather Reports


time (UTC)temp
C
wind
direction
speed
KPH
gust
KPH
rain 1hr
cm
rain 24hr
cm
rain mn
cm
humidity
%
barometer
mb
20210801180130 13 159 1.6 9.7 0.00 1.32 0.00 76 1023.6
20210801175536 13 153 1.6 9.7 0.00 1.32 0.00 72 1023.6
20210801175022 13 188 1.6 11.3 0.00 1.32 0.00 72 1023.6
20210801174515 13 119 3.2 12.9 0.00 1.32 0.00 71 1023.6
20210801173627 13 132 1.6 11.3 0.00 1.32 0.00 78 1023.7
20210801173322 13 155 3.2 9.7 0.00 1.32 0.00 73 1023.8
20210801172546 13 119 3.2 12.9 0.00 1.32 0.00 72 1023.8
20210801172029 12 113 3.2 14.5 0.00 1.32 0.00 73 1023.8
20210801171514 13 123 4.8 14.5 0.00 1.32 0.00 76 1023.9
20210801171109 13 120 3.2 14.5 0.00 1.32 0.00 75 1023.9
20210801170540 13 118 3.2 14.5 0.00 1.32 0.00 73 1023.9
20210801170136 13 117 4.8 12.9 0.00 1.32 0.00 70 1023.8
20210801165514 13 142 1.6 9.7 0.00 1.32 0.00 69 1023.9
20210801165007 13 124 0.0 11.3 0.00 1.32 0.00 66 1023.8
20210801164733 13 129 4.8 14.5 0.00 1.32 0.00 69 1023.8
20210801164042 13 158 3.2 14.5 0.00 1.32 0.00 72 1023.8
20210801163539 12 177 1.6 12.9 0.00 1.32 0.00 66 1023.7
20210801163025 13 172 1.6 12.9 0.00 1.32 0.00 70 1023.8
20210801162516 13 137 0.0 14.5 0.00 1.32 0.00 66 1023.7
20210801161721 12 63 4.8 11.3 0.00 1.32 0.00 70 1023.7
20210801161038 12 159 1.6 8.0 0.00 1.32 0.00 72 1023.6
20210801160516 12 71 0.0 9.7 0.00 1.32 0.00 72 1023.6
20210801160031 11 104 1.6 8.0 0.00 1.32 0.00 73 1023.7
20210801155555 11 166 1.6 8.0 0.00 1.32 0.00 71 1023.6
20210801155045 11 181 1.6 6.4 0.00 1.32 0.00 71 1023.6
20210801154612 11 138 0.0 6.4 0.00 1.32 0.00 78 1023.5
20210801154024 10 138 0.0 6.4 0.00 1.32 0.00 72 1023.6
20210801153546 11 138 1.6 6.4 0.00 1.32 0.00 75 1023.5
20210801152600 10 132 0.0 0.0 0.00 1.32 0.00 79 1023.4
20210801152048 10 132 0.0 0.0 0.00 1.32 0.00 81 1023.4
20210801151606 10 32 0.0 0.0 0.00 1.32 0.00 83 1023.4
20210801151009 10 32 0.0 0.0 0.00 1.32 0.00 83 1023.5
20210801150555 10 32 0.0 0.0 0.00 1.32 0.00 80 1023.4
20210801150108 10 32 0.0 0.0 0.00 1.32 0.00 83 1023.4
20210801145536 10 350 0.0 0.0 0.00 1.32 0.00 86 1023.4
20210801145023 10 350 0.0 0.0 0.00 1.32 0.00 84 1023.4
20210801144508 10 350 0.0 0.0 0.00 1.32 0.00 87 1023.4
20210801144057 9 350 0.0 0.0 0.00 1.32 0.00 85 1023.4
20210801143605 9 350 0.0 0.0 0.00 1.32 0.00 84 1023.4
20210801143110 9 350 0.0 0.0 0.00 1.32 0.00 84 1023.4
20210801142531 8 350 0.0 0.0 0.00 1.32 0.00 84 1023.4
20210801142019 8 350 0.0 0.0 0.00 1.32 0.00 85 1023.4
20210801141501 8 350 0.0 0.0 0.00 1.32 0.00 86 1023.4
20210801141152 8 350 0.0 0.0 0.00 1.32 0.00 88 1023.4
20210801140528 8 350 0.0 0.0 0.00 1.32 0.00 86 1023.4
20210801140021 8 350 0.0 0.0 0.00 1.32 0.00 91 1023.4
20210801135505 8 350 0.0 0.0 0.00 1.32 0.00 91 1023.3
20210801135102 8 350 0.0 0.0 0.00 1.32 0.00 91 1023.2
20210801134636 8 350 0.0 0.0 0.00 1.32 0.00 91 1023.2
20210801134035 8 350 0.0 0.0 0.00 1.32 0.00 92 1023.1
20210801133526 8 350 0.0 1.6 0.00 1.32 0.00 92 1023.0
20210801133013 8 350 0.0 1.6 0.00 1.32 0.00 93 1023.0
20210801132051 8 350 0.0 4.8 0.00 1.32 0.00 93 1022.9
20210801131710 8 350 0.0 4.8 0.00 1.32 0.00 93 1022.8
20210801131025 8 350 0.0 3.2 0.00 1.32 0.00 93 1022.8
20210801130505 7 350 0.0 3.2 0.00 1.32 0.00 93 1022.8
20210801130144 8 350 0.0 1.6 0.00 1.32 0.00 93 1022.7
20210801125605 8 350 0.0 3.2 0.00 1.32 0.00 93 1022.7
20210801125034 8 350 0.0 3.2 0.00 1.32 0.00 93 1022.6
20210801124546 8 350 0.0 4.8 0.00 1.32 0.00 93 1022.5
20210801124025 8 350 0.0 4.8 0.00 1.32 0.00 93 1022.5
20210801123502 8 350 0.0 3.2 0.00 1.32 0.00 94 1022.5
20210801123259 8 350 0.0 3.2 0.00 1.32 0.00 94 1022.4
20210801122553 8 350 0.0 4.8 0.00 1.32 0.00 93 1022.4
20210801122030 8 350 0.0 4.8 0.00 1.32 0.00 93 1022.2
20210801121629 8 350 0.0 4.8 0.00 1.32 0.00 92 1022.2
20210801120540 7 350 0.0 4.8 0.00 1.32 0.00 92 1022.2
20210801120113 7 350 0.0 4.8 0.00 1.32 0.00 92 1022.0
20210801115514 8 350 0.0 0.0 0.00 1.32 0.00 93 1022.0
20210801115005 8 350 0.0 0.0 0.00 1.32 0.00 93 1022.0
20210801114716 8 350 0.0 4.8 0.00 1.32 0.00 93 1021.9
20210801114043 8 350 0.0 4.8 0.00 1.32 0.00 93 1021.9
20210801113531 8 350 1.6 6.4 0.00 1.32 0.00 92 1021.9
20210801113038 8 351 0.0 6.4 0.00 1.32 0.00 92 1021.7
20210801112508 8 351 1.6 8.0 0.00 1.32 0.00 92 1021.8
20210801112100 8 355 1.6 8.0 0.00 1.32 0.00 91 1021.8
20210801111551 8 331 1.6 4.8 0.00 1.32 0.00 91 1021.9
20210801111042 8 327 1.6 4.8 0.00 1.32 0.00 91 1021.8
20210801110516 8 327 0.0 4.8 0.00 1.32 0.00 91 1021.8
20210801110007 8 327 1.6 8.0 0.00 1.32 0.00 92 1021.8
20210801105604 8 355 0.0 6.4 0.00 1.32 0.00 92 1021.8
20210801105046 8 351 1.6 6.4 0.00 1.32 0.00 92 1021.7
20210801104603 8 334 1.6 8.0 0.00 1.32 0.00 91 1021.7
20210801104023 8 334 1.6 8.0 0.00 1.32 0.00 91 1021.6
20210801103511 8 340 1.6 8.0 0.00 1.32 0.00 90 1021.5
20210801103002 8 344 3.2 6.4 0.00 1.32 0.00 91 1021.6
20210801102553 8 321 1.6 6.4 0.00 1.32 0.00 91 1021.5
20210801102054 8 346 3.2 8.0 0.00 1.32 0.00 90 1021.5
20210801101542 8 327 1.6 8.0 0.00 1.32 0.00 89 1021.4
20210801101010 8 338 1.6 6.4 0.00 1.32 0.00 89 1021.4
20210801100619 8 316 3.2 6.4 0.00 1.32 0.00 89 1021.4
20210801100116 8 311 3.2 6.4 0.00 1.32 0.00 90 1021.5
20210801095551 8 310 1.6 6.4 0.00 1.32 0.00 91 1021.4
20210801095024 8 309 1.6 6.4 0.00 1.32 0.00 92 1021.3
20210801094527 8 309 1.6 6.4 0.00 1.32 0.00 93 1021.4
20210801094001 8 309 1.6 6.4 0.00 1.32 0.00 94 1021.3
20210801093554 8 300 3.2 6.4 0.00 1.32 0.00 94 1021.3
20210801093229 8 281 1.6 8.0 0.00 1.32 0.00 95 1021.2
20210801092529 8 341 1.6 8.0 0.00 1.32 0.00 95 1021.1
20210801092036 8 292 0.0 8.0 0.00 1.32 0.00 95 1021.1
20210801091520 8 346 1.6 8.0 0.00 1.32 0.00 95 1021.0
20210801091057 8 317 0.0 6.4 0.00 1.32 0.00 95 1020.8
20210801090534 8 323 1.6 8.0 0.00 1.32 0.00 95 1020.7
20210801090047 8 342 1.6 8.0 0.00 1.32 0.00 95 1020.6
20210801085514 9 325 1.6 6.4 0.00 1.32 0.00 95 1020.7
20210801085003 8 308 1.6 8.0 0.00 1.32 0.00 95 1020.6
20210801084752 8 307 0.0 8.0 0.00 1.32 0.00 95 1020.6
20210801084043 9 333 1.6 8.0 0.00 1.32 0.00 95 1020.6
20210801083534 8 319 1.6 9.7 0.00 1.32 0.00 95 1020.7
20210801083051 8 329 3.2 9.7 0.00 1.32 0.00 95 1020.9
20210801082512 8 271 1.6 6.4 0.00 1.32 0.00 95 1020.9
20210801082100 8 314 0.0 6.4 0.00 1.32 0.00 95 1020.9
20210801081753 8 300 0.0 6.4 0.00 1.32 0.00 95 1021.0
20210801081107 8 294 1.6 6.4 0.00 1.32 0.00 95 1021.1
20210801080515 8 294 1.6 6.4 0.00 1.32 0.00 95 1021.1
20210801080009 9 292 0.0 6.4 0.00 1.37 0.00 95 1021.1
20210801075557 9 329 0.0 6.4 0.00 1.37 0.00 95 1021.0
20210801075131 9 298 0.0 8.0 0.00 1.37 0.00 95 1021.1
20210801074548 9 298 1.6 8.0 0.00 1.37 0.00 95 1021.1
20210801074022 9 327 1.6 9.7 0.00 1.37 0.00 95 1021.3
20210801073511 9 340 1.6 9.7 0.00 1.37 0.00 95 1021.2
20210801072551 9 298 0.0 3.2 0.00 1.37 0.00 95 1021.3
20210801072038 9 298 0.0 1.6 0.00 1.37 0.00 96 1021.4
20210801071611 9 298 0.0 0.0 0.00 1.37 0.00 96 1021.5
20210801071006 9 298 0.0 0.0 0.00 1.37 0.00 96 1021.6
20210801070608 9 298 0.0 0.0 0.00 1.37 0.00 96 1021.6
20210801070127 9 298 0.0 0.0 0.00 1.40 0.00 96 1021.6
20210801065539 9 298 0.0 0.0 0.00 1.40 0.00 96 1021.7
20210801065032 9 298 0.0 1.6 0.00 1.40 0.00 96 1021.7
20210801064531 9 296 0.0 6.4 0.00 1.40 0.00 96 1021.8
20210801064004 9 296 0.0 6.4 0.00 1.40 0.00 96 1021.8
20210801063608 9 325 0.0 4.8 0.00 1.40 0.00 96 1021.9
20210801063115 9 336 0.0 4.8 0.00 1.40 0.00 96 1021.9
20210801062550 9 339 0.0 4.8 0.00 1.40 0.00 96 1021.9
20210801062019 9 335 0.0 6.4 0.00 1.40 0.00 96 1021.9
20210801061533 9 340 0.0 6.4 0.00 1.40 0.00 96 1021.9
20210801061100 9 334 0.0 0.0 0.00 1.40 0.00 96 1022.0
20210801060548 9 334 0.0 0.0 0.00 1.40 0.00 96 1021.9
20210801060035 9 294 0.0 0.0 0.00 1.42 1.40 96 1021.9
20210801055528 9 349 0.0 0.0 0.00 1.42 1.40 96 1021.9
20210801055012 9 349 0.0 0.0 0.00 1.42 1.40 96 1021.7
20210801054653 9 350 0.0 0.0 0.00 1.42 1.40 96 1021.7
20210801054045 9 350 0.0 0.0 0.00 1.42 1.40 96 1021.8
20210801053533 9 350 0.0 0.0 0.00 1.42 1.40 96 1021.7
20210801053053 9 355 0.0 3.2 0.00 1.42 1.40 96 1021.6
20210801052514 9 355 0.0 4.8 0.00 1.42 1.40 96 1021.6
20210801051641 9 355 0.0 6.4 0.00 1.42 1.40 96 1021.6
20210801051039 9 346 0.0 9.7 0.00 1.42 1.40 96 1021.6
20210801050524 9 355 1.6 12.9 0.00 1.42 1.40 96 1021.6
20210801050012 9 30 0.0 12.9 0.00 1.42 1.40 96 1021.7
20210801045555 9 348 0.0 8.0 0.00 1.42 1.40 96 1021.7
20210801045044 9 351 0.0 8.0 0.00 1.42 1.40 95 1021.8
20210801044626 9 18 0.0 12.9 0.00 1.42 1.40 95 1021.9
20210801044033 9 326 1.6 12.9 0.00 1.42 1.40 95 1021.8
20210801043146 9 9 0.0 8.0 0.00 1.42 1.40 95 1021.7
20210801042542 9 40 1.6 8.0 0.00 1.42 1.40 95 1021.6
20210801042034 9 5 3.2 9.7 0.00 1.42 1.40 95 1021.7
20210801041534 9 336 1.6 9.7 0.00 1.42 1.40 95 1021.7
20210801040549 9 355 0.0 8.0 0.00 1.42 1.40 94 1021.6
20210801040113 9 34 0.0 6.4 0.00 1.78 1.40 94 1021.7
20210801035543 9 313 1.6 6.4 0.00 1.78 1.40 94 1021.5
20210801035037 9 327 1.6 6.4 0.00 1.78 1.40 94 1021.5
20210801034513 9 360 0.0 6.4 0.00 1.78 1.40 94 1021.5
20210801034056 9 355 1.6 6.4 0.00 1.78 1.40 94 1021.5
20210801033545 9 19 0.0 8.0 0.00 1.78 1.40 94 1021.3
20210801033123 9 5 0.0 6.4 0.00 1.78 1.40 94 1021.3
20210801032524 9 318 0.0 12.9 0.00 1.78 1.40 94 1021.3
20210801032012 9 336 1.6 14.5 0.00 1.78 1.40 94 1021.2
20210801031502 9 316 3.2 14.5 0.00 1.78 1.40 94 1021.0
20210801031107 9 319 1.6 12.9 0.00 1.78 1.40 95 1020.9
20210801030533 9 302 1.6 9.7 0.00 1.78 1.40 95 1020.8
20210801030109 9 327 0.0 9.7 0.00 1.78 1.40 95 1020.8
20210801025511 9 309 0.0 8.0 0.00 1.78 1.40 95 1020.6
20210801025059 9 329 0.0 8.0 0.00 1.78 1.40 95 1020.6
20210801024707 9 342 1.6 8.0 0.00 1.78 1.40 95 1020.5
20210801024106 9 275 0.0 12.9 0.00 1.78 1.40 95 1020.5
20210801023525 9 329 0.0 12.9 0.00 1.78 1.40 95 1020.5
20210801023051 9 355 0.0 9.7 0.00 1.78 1.40 95 1020.4
20210801022507 9 355 1.6 9.7 0.00 1.78 1.40 95 1020.3
20210801022057 9 300 0.0 8.0 0.00 1.78 1.40 95 1020.3
20210801021700 9 333 3.2 12.9 0.00 1.78 1.40 95 1020.3
20210801021021 9 5 3.2 12.9 0.00 1.78 1.40 95 1020.1
20210801020512 9 346 1.6 12.9 0.00 1.78 1.40 95 1020.1
20210801015605 9 328 1.6 9.7 0.00 1.78 1.40 95 1020.0
20210801015039 9 340 1.6 12.9 0.03 1.78 1.40 95 1019.9
20210801014557 9 355 1.6 12.9 0.03 1.78 1.40 95 1019.9
20210801014022 9 355 3.2 12.9 0.03 1.78 1.40 95 1019.9
20210801013505 9 304 1.6 11.3 0.03 1.78 1.40 95 1019.9
20210801013232 9 324 0.0 8.0 0.05 1.78 1.40 95 1019.9
20210801012549 9 344 0.0 6.4 0.08 1.78 1.40 95 1019.8
20210801012037 9 355 1.6 12.9 0.10 1.78 1.40 95 1019.8
20210801011559 9 334 0.0 12.9 0.15 1.78 1.40 95 1019.7
20210801011005 9 337 0.0 9.7 0.28 1.78 1.40 95 1019.7
20210801010557 9 322 1.6 14.5 0.33 1.78 1.40 95 1019.7
20210801010138 10 321 1.6 14.5 0.38 1.78 1.40 95 1019.7
20210801005536 10 338 0.0 9.7 0.38 1.78 1.40 95 1019.6
20210801005023 10 348 3.2 9.7 0.38 1.75 1.37 95 1019.5
20210801004513 10 11 3.2 9.7 0.41 1.75 1.37 95 1019.5
20210801004005 10 284 0.0 12.9 0.43 1.75 1.37 95 1019.4
20210801003552 10 32 3.2 12.9 0.46 1.75 1.37 95 1019.4
20210801003204 10 5 1.6 12.9 0.48 1.73 1.35 95 1019.3
20210801002535 10 350 1.6 12.9 0.48 1.70 1.32 95 1019.3
20210801002033 10 329 0.0 4.8 0.51 1.68 1.30 95 1019.2
20210801001527 10 5 0.0 9.7 0.51 1.60 1.22 95 1019.2
20210801000544 10 336 0.0 8.0 0.51 1.42 1.07 95 1019.1
20210801000057 10 355 0.0 1.6 0.48 1.40 1.02 95 1019.0
20210731235524 10 297 0.0 0.0 0.56 1.40 1.02 95 1019.1
20210731235018 10 344 0.0 4.8 0.58 1.37 0.99 95 1018.9
20210731234503 10 344 0.0 4.8 0.61 1.35 0.97 95 1018.9
20210731234054 10 344 0.0 4.8 0.66 1.32 0.94 95 1018.9
20210731233545 10 344 0.0 4.8 0.71 1.30 0.91 95 1018.9
20210731233052 10 344 0.0 6.4 0.71 1.24 0.86 94 1018.9
20210731232528 10 345 1.6 9.7 0.71 1.22 0.84 94 1018.8
20210731232014 10 5 0.0 9.7 0.66 1.14 0.76 94 1018.8
20210731231505 10 355 3.2 9.7 0.58 1.07 0.69 94 1018.8
20210731231057 11 360 1.6 8.0 0.56 1.02 0.64 94 1018.8
20210731230617 11 61 0.0 8.0 0.48 0.94 0.56 94 1018.7
20210731230030 11 355 0.0 6.4 0.43 0.89 0.51 94 1018.6
20210731225515 11 339 1.6 6.4 0.38 0.84 0.46 93 1018.5
20210731225002 11 344 0.0 9.7 0.33 0.79 0.41 93 1018.5
20210731224815 11 344 1.6 9.7 0.28 0.71 0.36 93 1018.4
20210731224132 11 336 1.6 8.0 0.20 0.66 0.28 92 1018.4
20210731223536 11 290 1.6 8.0 0.13 0.58 0.20 92 1018.4
20210731223107 11 344 0.0 4.8 0.03 0.48 0.10 92 1018.4
20210731222514 12 5 0.0 3.2 0.03 0.48 0.10 92 1018.5
20210731222007 12 350 0.0 4.8 0.03 0.48 0.10 92 1018.4
20210731221759 12 351 0.0 4.8 0.03 0.48 0.10 91 1018.3
20210731221053 12 351 0.0 4.8 0.00 0.46 0.08 90 1018.4
20210731220524 12 9 0.0 4.8 0.00 0.46 0.08 89 1018.3
20210731220016 12 5 0.0 4.8 0.00 0.46 0.08 88 1018.2
20210731215502 12 360 0.0 4.8 0.00 0.46 0.08 88 1018.2
20210731215105 12 360 0.0 4.8 0.00 0.46 0.08 89 1018.1
20210731214556 12 46 0.0 4.8 0.00 0.46 0.08 89 1018.0
20210731214035 12 5 0.0 4.8 0.00 0.46 0.08 89 1018.0
20210731213537 12 5 0.0 6.4 0.00 0.46 0.08 88 1018.0
20210731213040 12 51 0.0 6.4 0.00 0.46 0.08 89 1018.0
20210731212506 12 50 0.0 3.2 0.00 0.46 0.08 89 1017.9
20210731212058 12 57 0.0 8.0 0.00 0.46 0.08 90 1017.9
20210731211635 12 57 0.0 8.0 0.00 0.46 0.08 89 1017.9
20210731211040 12 39 0.0 6.4 0.00 0.46 0.08 88 1017.8
20210731210520 12 355 0.0 6.4 0.00 0.46 0.08 88 1017.9
20210731210011 12 29 0.0 6.4 0.00 0.46 0.08 88 1017.7
20210731205600 12 13 1.6 6.4 0.00 0.46 0.08 87 1017.8
20210731205059 12 16 0.0 4.8 0.00 0.46 0.08 87 1017.7
20210731204557 12 16 0.0 6.4 0.00 0.46 0.08 86 1017.7
20210731204038 12 349 1.6 9.7 0.00 0.46 0.08 86 1017.6
20210731203525 12 51 1.6 9.7 0.00 0.46 0.08 87 1017.6
20210731203024 12 50 1.6 6.4 0.00 0.46 0.08 87 1017.6
20210731202555 12 25 1.6 6.4 0.00 0.46 0.08 89 1017.5
20210731202111 12 5 0.0 6.4 0.00 0.46 0.08 88 1017.3
20210731201656 12 38 0.0 6.4 0.00 0.46 0.08 91 1017.4
20210731201025 12 84 0.0 6.4 0.00 0.46 0.08 91 1017.4
20210731200503 12 41 1.6 6.4 0.00 0.46 0.08 91 1017.3
20210731200146 12 28 0.0 6.4 0.00 0.46 0.08 91 1017.2
20210731195556 12 28 1.6 8.0 0.00 0.46 0.08 91 1017.2
20210731195035 12 60 0.0 8.0 0.00 0.46 0.08 91 1017.1
20210731194609 12 44 0.0 9.7 0.00 0.46 0.08 90 1017.0
20210731194041 12 67 0.0 9.7 0.00 0.46 0.08 89 1017.1
20210731193507 12 28 1.6 8.0 0.00 0.46 0.08 90 1017.1
20210731193131 12 42 1.6 8.0 0.00 0.46 0.08 91 1017.1